Time,TemperatureF,DewpointF,PressureIn,WindDirection,WindDirectionDegrees,WindSpeedMPH,WindSpeedGustMPH,Humidity,HourlyPrecipIn,Conditions,Clouds,dailyrainin,SolarRadiationWatts/m^2,SoftwareType,DateUTC
2013-05-12 00:13:00,65.9,51.0,29.86,NE,55,1.0,-999.0,58,-99.99,,,0.00,0,weatherlink.com 1.10,2013-05-12 07:13:00,
2013-05-12 00:28:00,64.2,51.0,29.86,ENE,57,2.0,-999.0,62,-99.99,,,0.00,0,weatherlink.com 1.10,2013-05-12 07:28:00,
2013-05-12 00:43:00,65.2,51.0,29.86,ENE,57,4.0,-999.0,60,-99.99,,,0.00,0,weatherlink.com 1.10,2013-05-12 07:43:00,
2013-05-12 00:58:00,64.8,50.0,29.86,East,100,5.0,-999.0,60,-99.99,,,0.00,0,weatherlink.com 1.10,2013-05-12 07:58:00,
2013-05-12 01:13:00,65.1,51.0,29.86,East,100,1.0,-999.0,61,-99.99,,,0.00,0,weatherlink.com 1.10,2013-05-12 08:13:00,
2013-05-12 01:28:00,64.4,51.0,29.86,East,100,4.0,-999.0,63,-99.99,,,0.00,0,weatherlink.com 1.10,2013-05-12 08:28:00,
2013-05-12 01:43:00,63.4,51.0,29.86,East,100,0.0,-999.0,65,-99.99,,,0.00,0,weatherlink.com 1.10,2013-05-12 08:43:00,
2013-05-12 01:58:00,62.5,51.0,29.86,East,100,4.0,-999.0,66,-99.99,,,0.00,0,weatherlink.com 1.10,2013-05-12 08:58:00,
2013-05-12 02:13:00,61.4,50.0,29.85,East,100,0.0,-999.0,67,-99.99,,,0.00,0,weatherlink.com 1.10,2013-05-12 09:13:00,
2013-05-12 02:28:00,59.7,49.0,29.85,East,101,2.0,-999.0,69,-99.99,,,0.00,0,weatherlink.com 1.10,2013-05-12 09:28:00,
2013-05-12 02:43:00,57.6,49.0,29.85,East,101,0.0,-999.0,73,-99.99,,,0.00,0,weatherlink.com 1.10,2013-05-12 09:43:00,
2013-05-12 02:58:00,58.2,50.0,29.85,ESE,105,0.0,-999.0,75,-99.99,,,0.00,0,weatherlink.com 1.10,2013-05-12 09:58:00,
2013-05-12 03:13:00,59.0,51.0,29.84,ESE,105,0.0,-999.0,74,-99.99,,,0.00,0,weatherlink.com 1.10,2013-05-12 10:13:00,
2013-05-12 03:28:00,58.6,50.0,29.84,SE,140,0.0,-999.0,74,-99.99,,,0.00,0,weatherlink.com 1.10,2013-05-12 10:28:00,
2013-05-12 03:43:00,59.8,50.0,29.84,SW,217,1.0,-999.0,71,-99.99,,,0.00,0,weatherlink.com 1.10,2013-05-12 10:43:00,
2013-05-12 03:58:00,61.6,50.0,29.84,SW,217,2.0,-999.0,65,-99.99,,,0.00,0,weatherlink.com 1.10,2013-05-12 10:58:00,
2013-05-12 04:13:00,63.4,45.0,29.84,SW,217,2.0,-999.0,52,-99.99,,,0.00,0,weatherlink.com 1.10,2013-05-12 11:13:00,
2013-05-12 04:28:00,62.8,47.0,29.84,WSW,241,5.0,-999.0,56,-99.99,,,0.00,0,weatherlink.com 1.10,2013-05-12 11:28:00,
2013-05-12 04:43:00,63.0,46.0,29.83,SSW,203,5.0,-999.0,55,-99.99,,,0.00,0,weatherlink.com 1.10,2013-05-12 11:43:00,
2013-05-12 04:58:00,63.1,47.0,29.83,SSW,206,2.0,-999.0,56,-99.99,,,0.00,0,weatherlink.com 1.10,2013-05-12 11:58:00,
2013-05-12 05:13:00,64.0,45.0,29.83,SSW,209,3.0,-999.0,51,-99.99,,,0.00,0,weatherlink.com 1.10,2013-05-12 12:13:00,
2013-05-12 05:28:00,61.3,44.0,29.83,SSE,167,1.0,-999.0,53,-99.99,,,0.00,0,weatherlink.com 1.10,2013-05-12 12:28:00,
2013-05-12 05:43:00,62.6,42.0,29.83,SSW,204,3.0,-999.0,47,-99.99,,,0.00,0,weatherlink.com 1.10,2013-05-12 12:43:00,
2013-05-12 05:58:00,63.3,41.0,29.84,SSW,196,5.0,-999.0,44,-99.99,,,0.00,12,weatherlink.com 1.10,2013-05-12 12:58:00,
2013-05-12 06:13:00,63.3,40.0,29.84,South,171,0.0,-999.0,43,-99.99,,,0.00,30,weatherlink.com 1.10,2013-05-12 13:13:00,
2013-05-12 06:28:00,60.5,41.0,29.84,South,171,1.0,-999.0,49,-99.99,,,0.00,51,weatherlink.com 1.10,2013-05-12 13:28:00,
2013-05-12 06:43:00,59.5,42.0,29.84,South,171,4.0,-999.0,53,-99.99,,,0.00,86,weatherlink.com 1.10,2013-05-12 13:43:00,
2013-05-12 06:58:00,59.1,42.0,29.85,South,172,0.0,-999.0,53,-99.99,,,0.00,128,weatherlink.com 1.10,2013-05-12 13:58:00,
2013-05-12 07:13:00,60.5,44.0,29.85,South,173,2.0,-999.0,55,-99.99,,,0.00,179,weatherlink.com 1.10,2013-05-12 14:13:00,
2013-05-12 07:28:00,61.0,45.0,29.85,SSE,167,2.0,-999.0,55,-99.99,,,0.00,218,weatherlink.com 1.10,2013-05-12 14:28:00,
2013-05-12 07:43:00,62.8,46.0,29.86,SE,140,1.0,-999.0,55,-99.99,,,0.00,237,weatherlink.com 1.10,2013-05-12 14:43:00,
2013-05-12 07:58:00,64.8,47.0,29.85,SE,140,0.0,-999.0,53,-99.99,,,0.00,299,weatherlink.com 1.10,2013-05-12 14:58:00,
2013-05-12 08:13:00,65.8,46.0,29.86,ESE,117,0.0,-999.0,50,-99.99,,,0.00,250,weatherlink.com 1.10,2013-05-12 15:13:00,
2013-05-12 08:28:00,67.1,47.0,29.86,ESE,117,0.0,-999.0,48,-99.99,,,0.00,255,weatherlink.com 1.10,2013-05-12 15:28:00,
2013-05-12 08:43:00,68.3,46.0,29.86,ESE,117,0.0,-999.0,45,-99.99,,,0.00,241,weatherlink.com 1.10,2013-05-12 15:43:00,
2013-05-12 08:58:00,67.9,44.0,29.86,ESE,117,0.0,-999.0,42,-99.99,,,0.00,279,weatherlink.com 1.10,2013-05-12 15:58:00,
2013-05-12 09:13:00,68.2,41.0,29.86,NNW,336,4.0,-999.0,38,-99.99,,,0.00,338,weatherlink.com 1.10,2013-05-12 16:13:00,
2013-05-12 09:28:00,68.4,45.0,29.86,NNW,336,3.0,-999.0,43,-99.99,,,0.00,355,weatherlink.com 1.10,2013-05-12 16:28:00,
2013-05-12 09:43:00,69.4,39.0,29.85,WNW,294,2.0,-999.0,33,-99.99,,,0.00,320,weatherlink.com 1.10,2013-05-12 16:43:00,
2013-05-12 09:58:00,69.8,39.0,29.85,West,271,3.0,-999.0,33,-99.99,,,0.00,299,weatherlink.com 1.10,2013-05-12 16:58:00,
2013-05-12 10:13:00,70.7,40.0,29.85,West,270,0.0,-999.0,33,-99.99,,,0.00,294,weatherlink.com 1.10,2013-05-12 17:13:00,
2013-05-12 10:28:00,71.2,41.0,29.85,WSW,240,1.0,-999.0,33,-99.99,,,0.00,330,weatherlink.com 1.10,2013-05-12 17:28:00,
2013-05-12 10:43:00,72.1,42.0,29.84,SW,226,1.0,-999.0,34,-99.99,,,0.00,385,weatherlink.com 1.10,2013-05-12 17:43:00,
2013-05-12 10:58:00,72.1,43.0,29.85,NW,325,6.0,-999.0,35,-99.99,,,0.00,371,weatherlink.com 1.10,2013-05-12 17:58:00,
2013-05-12 11:13:00,72.4,42.0,29.85,WNW,302,0.0,-999.0,33,-99.99,,,0.00,396,weatherlink.com 1.10,2013-05-12 18:13:00,
2013-05-12 11:28:00,73.7,42.0,29.84,West,263,10.0,-999.0,32,-99.99,,,0.00,396,weatherlink.com 1.10,2013-05-12 18:28:00,
2013-05-12 11:43:00,74.6,43.0,29.84,West,265,7.0,-999.0,32,-99.99,,,0.00,478,weatherlink.com 1.10,2013-05-12 18:43:00,
2013-05-12 11:58:00,75.8,43.0,29.84,SW,219,4.0,-999.0,31,-99.99,,,0.00,455,weatherlink.com 1.10,2013-05-12 18:58:00,
2013-05-12 12:13:00,75.7,43.0,29.84,SSW,208,8.0,-999.0,31,-99.99,,,0.00,448,weatherlink.com 1.10,2013-05-12 19:13:00,
2013-05-12 12:28:00,76.2,43.0,29.84,SW,222,9.0,-999.0,30,-99.99,,,0.00,515,weatherlink.com 1.10,2013-05-12 19:28:00,
2013-05-12 12:43:00,77.0,43.0,29.83,WSW,242,0.0,-999.0,30,-99.99,,,0.00,570,weatherlink.com 1.10,2013-05-12 19:43:00,
2013-05-12 12:58:00,78.0,42.0,29.82,SW,234,9.0,-999.0,28,-99.99,,,0.00,1121,weatherlink.com 1.10,2013-05-12 19:58:00,
2013-05-12 13:13:00,78.6,43.0,29.82,WSW,251,20.0,-999.0,28,-99.99,,,0.00,1016,weatherlink.com 1.10,2013-05-12 20:13:00,
2013-05-12 13:28:00,79.2,41.0,29.82,West,279,11.0,-999.0,26,-99.99,,,0.00,856,weatherlink.com 1.10,2013-05-12 20:28:00,
2013-05-12 13:43:00,79.3,42.0,29.82,West,271,12.0,-999.0,27,-99.99,,,0.00,833,weatherlink.com 1.10,2013-05-12 20:43:00,
2013-05-12 13:58:00,79.8,42.0,29.81,SSW,197,7.0,-999.0,26,-99.99,,,0.00,759,weatherlink.com 1.10,2013-05-12 20:58:00,
2013-05-12 14:13:00,78.1,43.0,29.81,WNW,287,6.0,-999.0,29,-99.99,,,0.00,570,weatherlink.com 1.10,2013-05-12 21:13:00,
2013-05-12 14:28:00,78.8,44.0,29.81,NW,315,13.0,-999.0,29,-99.99,,,0.00,615,weatherlink.com 1.10,2013-05-12 21:28:00,
2013-05-12 14:43:00,77.2,44.0,29.80,West,273,12.0,-999.0,31,-99.99,,,0.00,311,weatherlink.com 1.10,2013-05-12 21:43:00,
2013-05-12 14:58:00,77.1,44.0,29.80,West,271,13.0,-999.0,31,-99.99,,,0.00,403,weatherlink.com 1.10,2013-05-12 21:58:00,
2013-05-12 15:13:00,78.3,43.0,29.79,West,277,7.0,-999.0,29,-99.99,,,0.00,533,weatherlink.com 1.10,2013-05-12 22:13:00,
2013-05-12 15:28:00,79.1,44.0,29.79,SW,235,12.0,-999.0,29,-99.99,,,0.00,940,weatherlink.com 1.10,2013-05-12 22:28:00,
2013-05-12 15:43:00,80.0,44.0,29.79,WSW,252,10.0,-999.0,28,-99.99,,,0.00,856,weatherlink.com 1.10,2013-05-12 22:43:00,
2013-05-12 15:58:00,79.5,43.0,29.78,WNW,294,11.0,-999.0,27,-99.99,,,0.00,376,weatherlink.com 1.10,2013-05-12 22:58:00,
2013-05-12 16:13:00,77.8,43.0,29.78,WSW,258,6.0,-999.0,29,-99.99,,,0.00,262,weatherlink.com 1.10,2013-05-12 23:13:00,
2013-05-12 16:28:00,77.3,44.0,29.78,SSE,147,11.0,-999.0,31,-99.99,,,0.00,192,weatherlink.com 1.10,2013-05-12 23:28:00,
2013-05-12 16:43:00,77.0,45.0,29.78,SW,229,9.0,-999.0,32,-99.99,,,0.00,221,weatherlink.com 1.10,2013-05-12 23:43:00,
2013-05-12 16:58:00,77.1,46.0,29.77,West,265,8.0,-999.0,33,-99.99,,,0.00,220,weatherlink.com 1.10,2013-05-12 23:58:00,
2013-05-12 17:13:00,76.2,48.0,29.77,West,277,12.0,-999.0,37,-99.99,,,0.00,272,weatherlink.com 1.10,2013-05-13 00:13:00,
2013-05-12 17:28:00,73.3,47.0,29.77,WNW,288,12.0,-999.0,40,-99.99,,,0.00,246,weatherlink.com 1.10,2013-05-13 00:28:00,
2013-05-12 17:43:00,73.7,48.0,29.77,NW,304,20.0,-999.0,40,-99.99,,,0.00,352,weatherlink.com 1.10,2013-05-13 00:43:00,
2013-05-12 17:58:00,73.0,48.0,29.77,WNW,298,22.0,-999.0,41,-99.99,,,0.00,251,weatherlink.com 1.10,2013-05-13 00:58:00,
2013-05-12 18:13:00,72.9,47.0,29.76,WNW,287,17.0,-999.0,40,-99.99,,,0.00,294,weatherlink.com 1.10,2013-05-13 01:13:00,
2013-05-12 18:28:00,73.1,48.0,29.77,West,272,10.0,-999.0,41,-99.99,,,0.00,229,weatherlink.com 1.10,2013-05-13 01:28:00,
2013-05-12 18:43:00,71.8,47.0,29.77,West,265,10.0,-999.0,42,-99.99,,,0.00,213,weatherlink.com 1.10,2013-05-13 01:43:00,
2013-05-12 18:58:00,71.7,48.0,29.76,WNW,290,6.0,-999.0,43,-99.99,,,0.00,130,weatherlink.com 1.10,2013-05-13 01:58:00,
2013-05-12 19:13:00,72.4,48.0,29.76,NW,304,11.0,-999.0,42,-99.99,,,0.00,114,weatherlink.com 1.10,2013-05-13 02:13:00,
2013-05-12 19:28:00,71.7,47.0,29.77,NNW,345,0.0,-999.0,42,-99.99,,,0.00,90,weatherlink.com 1.10,2013-05-13 02:28:00,
2013-05-12 19:43:00,70.5,47.0,29.77,ESE,102,5.0,-999.0,44,-99.99,,,0.00,53,weatherlink.com 1.10,2013-05-13 02:43:00,
2013-05-12 19:58:00,68.4,47.0,29.77,NE,42,4.0,-999.0,47,-99.99,,,0.00,33,weatherlink.com 1.10,2013-05-13 02:58:00,
2013-05-12 20:13:00,68.1,47.0,29.78,NW,315,6.0,-999.0,47,-99.99,,,0.00,16,weatherlink.com 1.10,2013-05-13 03:13:00,
2013-05-12 20:28:00,67.5,47.0,29.77,SW,232,0.0,-999.0,48,-99.99,,,0.00,7,weatherlink.com 1.10,2013-05-13 03:28:00,
2013-05-12 20:43:00,66.2,47.0,29.78,SSE,155,5.0,-999.0,51,-99.99,,,0.00,0,weatherlink.com 1.10,2013-05-13 03:43:00,
2013-05-12 20:58:00,64.5,48.0,29.79,SSE,154,0.0,-999.0,55,-99.99,,,0.00,0,weatherlink.com 1.10,2013-05-13 03:58:00,
2013-05-12 21:13:00,64.5,48.0,29.80,SSE,154,0.0,-999.0,55,-99.99,,,0.00,0,weatherlink.com 1.10,2013-05-13 04:13:00,
2013-05-12 21:28:00,64.1,47.0,29.81,SSE,154,0.0,-999.0,55,-99.99,,,0.00,0,weatherlink.com 1.10,2013-05-13 04:28:00,
2013-05-12 21:43:00,64.2,48.0,29.81,SSE,154,0.0,-999.0,55,-99.99,,,0.00,0,weatherlink.com 1.10,2013-05-13 04:43:00,
2013-05-12 21:58:00,64.0,48.0,29.82,SSE,154,0.0,-999.0,56,-99.99,,,0.00,0,weatherlink.com 1.10,2013-05-13 04:58:00,
2013-05-12 22:13:00,64.2,48.0,29.82,SSE,155,2.0,-999.0,56,-99.99,,,0.00,0,weatherlink.com 1.10,2013-05-13 05:13:00,
2013-05-12 22:28:00,63.4,47.0,29.82,SSE,155,2.0,-999.0,56,-99.99,,,0.00,0,weatherlink.com 1.10,2013-05-13 05:28:00,
2013-05-12 22:43:00,62.9,47.0,29.82,SSE,155,0.0,-999.0,57,-99.99,,,0.00,0,weatherlink.com 1.10,2013-05-13 05:43:00,
2013-05-12 22:58:00,63.2,44.0,29.82,SW,217,6.0,-999.0,50,-99.99,,,0.00,0,weatherlink.com 1.10,2013-05-13 05:58:00,
2013-05-12 23:13:00,62.8,43.0,29.83,SSW,213,4.0,-999.0,49,-99.99,,,0.00,0,weatherlink.com 1.10,2013-05-13 06:13:00,
2013-05-12 23:28:00,63.0,43.0,29.82,SSW,212,3.0,-999.0,48,-99.99,,,0.00,0,weatherlink.com 1.10,2013-05-13 06:28:00,
2013-05-12 23:43:00,60.6,46.0,29.82,ENE,65,5.0,-999.0,60,-99.99,,,0.00,0,weatherlink.com 1.10,2013-05-13 06:43:00,
2013-05-12 23:58:00,57.8,46.0,29.83,NE,54,0.0,-999.0,66,-99.99,,,0.00,0,weatherlink.com 1.10,2013-05-13 06:58:00,